Weather History for Warsaw, Poland

Change the Weather History Date:

Wednesday, February 6, 2013

  Actual Average Record
Temperature  
Mean Temperature 32 °F -  
Max Temperature 35 °F 36 °F 53 °F (2000)
Min Temperature 30 °F 24 °F -2 °F (2012)
Degree Days  
Heating Degree Days 32    
Moisture  
Dew Point 30 °F    
Average Humidity 88    
Maximum Humidity 100    
Minimum Humidity 68    
Precipitation  
Precipitation 0.01 in 0.03 in - ()
Sea Level Pressure  
Sea Level Pressure 29.52 in    
Wind  
Wind Speed 4 mph ()    
Max Wind Speed 10 mph    
Max Gust Speed -    
Visibility 5.3 miles    
Events Fog , Rain , Snow    
Averages and records for this station are not official NWS values.
T = Trace of Precipitation, MM = Missing Value Source: Averaged Metar Reports

Daily Weather History Graph

Daily Weather History Graph

Search for Another Location

Airport:

Trip Planner

Search our weather history database for the weather conditions in past years. The results will help you decide how hot, cold, wet, or windy it might be!

Date:

Astronomy

Feb. 06, 2013 Rise Set
Actual Time 7:08 AM CET 4:33 PM CET
Civil Twilight 6:32 AM CET 5:09 PM CET
Nautical Twilight 5:51 AM CET 5:49 PM CET
Astronomical Twilight 5:12 AM CET 6:28 PM CET
Moon 3:49 AM CET (2/6) 12:16 PM CET (2/6)
Length of Visible Light 10h 37m
Length of Day
9h 24m
Waning Crescent, 19% of the Moon is Illuminated
Feb 6
Waning Crescent
Feb 10
New
Feb 17
First Quarter
Feb 25
Full
Mar 4
Last Quarter

Hourly Weather History & Observations

Time (CET) Temp. Windchill Dew Point Humidity Pressure Visibility Wind Dir Wind Speed Gust Speed Precip Events Conditions
12:00 AM 39.2 °F 33.6 °F 32.0 °F 75% 29.44 in - SW 8.1 mph - N/A   Clear
12:30 AM 37.4 °F 32.8 °F 32.0 °F 81% 29.44 in 6.2 mi SW 5.8 mph - N/A   Scattered Clouds
1:00 AM 38 °F - 31 °F 68% 29.48 in 12 mi WSW 4.5 mph - -   Overcast
1:00 AM 37.4 °F 31.4 °F 32.0 °F 81% 29.44 in 6.2 mi WSW 8.1 mph - N/A   Scattered Clouds
1:30 AM 37.4 °F 32.1 °F 30.2 °F 75% 29.47 in 6.2 mi West 6.9 mph - N/A   Scattered Clouds
2:00 AM 37.4 °F 30.3 °F 30.2 °F 75% 29.47 in 6.2 mi West 10.4 mph - N/A   Scattered Clouds
2:30 AM 35.6 °F 28.0 °F 28.4 °F 75% 29.50 in 6.2 mi West 10.4 mph - N/A   Partly Cloudy
3:00 AM 35.6 °F 28.6 °F 28.4 °F 75% 29.50 in - WSW 9.2 mph - N/A   Clear
3:30 AM 33.8 °F 29.6 °F 28.4 °F 81% 29.50 in - WSW 4.6 mph - N/A   Clear
4:00 AM 33 °F - 27 °F 72%  in 19 mi Calm Calm - -   Mostly Cloudy
4:00 AM 32.0 °F 28.7 °F 28.4 °F 87% 29.50 in - SSW 3.5 mph - N/A   Clear
4:30 AM 32.0 °F 28.7 °F 28.4 °F 87% 29.50 in - Variable 3.5 mph - N/A   Clear
5:00 AM 32.0 °F 28.7 °F 28.4 °F 87% 29.50 in - SSW 3.5 mph - N/A   Clear
5:30 AM 32.0 °F 28.7 °F 28.4 °F 87% 29.53 in - South 3.5 mph - N/A   Clear
6:00 AM 30.2 °F 26.7 °F 28.4 °F 93% 29.50 in - Variable 3.5 mph - N/A   Clear
6:30 AM 30.2 °F 25.4 °F 28.4 °F 93% 29.50 in - South 4.6 mph - N/A   Clear
7:00 AM 31 °F - 28 °F 86% 29.56 in 12 mi South 2.2 mph - -   Overcast
7:00 AM 30.2 °F 24.3 °F 28.4 °F 93% 29.53 in - South 5.8 mph - N/A   Clear
7:30 AM 32.0 °F 27.5 °F 28.4 °F 87% 29.53 in 6.2 mi South 4.6 mph - N/A   Scattered Clouds
8:00 AM 32.0 °F 28.7 °F 28.4 °F 87% 29.53 in 6.2 mi South 3.5 mph - N/A   Partly Cloudy
8:30 AM 32.0 °F 28.7 °F 28.4 °F 87% 29.53 in 6.2 mi South 3.5 mph - N/A   Partly Cloudy
9:00 AM 32.0 °F 27.5 °F 28.4 °F 87% 29.53 in 6.2 mi South 4.6 mph - N/A   Partly Cloudy
9:30 AM 32.0 °F 27.5 °F 30.2 °F 93% 29.53 in - South 4.6 mph - N/A   Clear
10:00 AM 33 °F - 30 °F 82% 29.56 in 9 mi Calm Calm - -   Mostly Cloudy
10:00 AM 33.8 °F 29.6 °F 30.2 °F 87% 29.53 in - South 4.6 mph - N/A   Clear
10:30 AM 33.8 °F 30.8 °F 30.2 °F 87% 29.53 in - Variable 3.5 mph - N/A   Clear
11:00 AM 33.8 °F 30.8 °F 30.2 °F 87% 29.53 in - Variable 3.5 mph - N/A   Clear
11:30 AM 33.8 °F 29.6 °F 30.2 °F 87% 29.53 in - SSE 4.6 mph - N/A   Clear
12:00 PM 35.6 °F 30.7 °F 30.2 °F 81% 29.53 in 6.2 mi South 5.8 mph - N/A   Partly Cloudy
12:30 PM 35.6 °F 30.7 °F 30.2 °F 81% 29.53 in 6.2 mi SSW 5.8 mph - N/A   Scattered Clouds
1:00 PM 35 °F - 31 °F 78% 29.55 in 9 mi South 4.5 mph - - Snow Light Snow
1:00 PM 35.6 °F 30.7 °F 30.2 °F 81% 29.53 in 6.2 mi South 5.8 mph - N/A Rain , Snow Light Rain
1:30 PM 33.8 °F 29.6 °F 30.2 °F 87% 29.53 in 4.3 mi SSW 4.6 mph - N/A Rain , Snow Light Snow
2:00 PM 33.8 °F - 32.0 °F 93% 29.50 in 3.1 mi Variable 1.2 mph - N/A Rain Rain
2:30 PM 33.8 °F - 32.0 °F 93% 29.50 in 2.5 mi Calm Calm - N/A Rain Rain
3:00 PM 32.0 °F - 32.0 °F 100% 29.50 in 1.9 mi Variable 2.3 mph - N/A Snow Light Snow
3:30 PM 32.0 °F - 30.2 °F 93% 29.50 in 4.3 mi SE 2.3 mph - N/A Snow Light Snow
4:00 PM 32 °F - 31 °F 95% 29.55 in 2 mi East 4.5 mph - - Snow Light Snow
4:00 PM 32.0 °F 28.7 °F 30.2 °F 93% 29.53 in 2.5 mi Variable 3.5 mph - N/A Snow Light Snow
4:30 PM 32.0 °F - 30.2 °F 93% 29.53 in 6.2 mi Variable 2.3 mph - N/A Snow Light Snow
5:00 PM 32.0 °F - 30.2 °F 93% 29.53 in 6.2 mi Variable 1.2 mph - N/A   Mostly Cloudy
5:30 PM 32.0 °F - 30.2 °F 93% 29.53 in 6.2 mi SSE 1.2 mph - N/A   Mostly Cloudy
6:00 PM 32.0 °F - 30.2 °F 93% 29.53 in 6.2 mi Calm Calm - N/A Snow Light Snow
6:30 PM 32.0 °F - 30.2 °F 93% 29.53 in 6.2 mi SSE 2.3 mph - N/A Snow Light Snow
7:00 PM 32 °F - 31 °F 97% 29.57 in 6 mi Calm Calm - - Snow Light Snow
7:00 PM 32.0 °F - 30.2 °F 93% 29.53 in 6.2 mi Variable 2.3 mph - N/A Snow Light Snow
7:30 PM 32.0 °F - 30.2 °F 93% 29.56 in 6.2 mi Calm Calm - N/A Snow Light Snow
8:00 PM 32.0 °F - 30.2 °F 93% 29.56 in 6.2 mi Variable 2.3 mph - N/A   Scattered Clouds
8:30 PM 30.2 °F - 30.2 °F 100% 29.56 in 1.9 mi Calm Calm - N/A Fog , Snow Light Snow
9:00 PM 30.2 °F - 30.2 °F 100% 29.56 in 1.6 mi Variable 2.3 mph - N/A   Mostly Cloudy
9:30 PM 30.2 °F - 30.2 °F 100% 29.56 in 0.7 mi Variable 1.2 mph - N/A   Mostly Cloudy
10:00 PM 31 °F - 30 °F 96% 29.60 in 0 mi West 4.5 mph - - Fog Partial Fog
10:00 PM 30.2 °F - 30.2 °F 100% 29.56 in 0.4 mi Variable 2.3 mph - N/A Fog Light Freezing Fog
10:30 PM 30.2 °F - 30.2 °F 100% 29.56 in 0.8 mi Variable 2.3 mph - N/A   Mostly Cloudy
11:00 PM 30.2 °F 26.7 °F 30.2 °F 100% 29.56 in 0.8 mi Variable 3.5 mph - N/A   Mostly Cloudy
11:30 PM 30.2 °F - 30.2 °F 100% 29.56 in 0.6 mi Variable 2.3 mph - N/A Fog Light Freezing Fog